User: anonymous   Login
Location: Roanoke
(37.2710°N, 79.9420°W)
Time: 06:50:39
(UTC-04:00)
Language:

Cosmos 1441 Rocket - Orbit

View from above orbital plane
View from above orbital plane
View from above satellite
View from above satellite

Ground track
Ground track

The orbit data is extracted from the following two-line orbital elements,

1 13819U 83010B   17204.91005929 +.00000663 +00000-0 +33768-4 0  9999
2 13819 081.1166 116.7943 0031940 214.2459 145.6710 15.14974529878994
Epoch (UTC): 23 July 2017 21:50:29
Eccentricity: 0.0031940
inclination: 81.1166°
perigee height: 499 km
apogee height: 543 km
right ascension of ascending node: 116.7943°
argument of perigee: 214.2459°
revolutions per day: 15.14974529
mean anomaly at epoch: 145.6710°
orbit number at epoch: 87899

The dashed part of the orbit path shows where the satellite is in the earth's shadow,  

DLR